Tracking 29892 objects as of 21-Nov-2024
HD Live streaming from Space Station
objects crossing your sky now

DMSP 5D-2 F13 DEB

Track DMSP 5D-2 F13 DEB now!
10-day predictions


NORAD ID: 40559
Int'l Code: 1995-015DS
Perigee: 704.0 km
Apogee: 755.1 km
Inclination: 98.6 °
Period: 99.2 minutes
Semi major axis: 7100 km
RCS: Unknown
Launch date: March 24, 1995
Source: United States (US)
Launch site: AIR FORCE WESTERN TEST RANGE (AFWTR)

Note: This is SATELLITE DEBRIS
Your satellite tracking list
Your tracking list is empty




NASA's NSSDC Master Catalog

Two Line Element Set (TLE):
1 40559U 95015DS  24322.51028317  .00035900  00000-0  89678-2 0  9990
2 40559  98.5588 235.1968 0036016  89.9590 270.5731 14.50992897496848
Source of the keplerian elements: AFSPC